AEROCUBE 12B (43557 NORAD) Tracking and Keplerian Element Data

This shows tracking and keplerian element data for the satellite.

Feedback or suggestion? Click here.




ElementValue
Catalog43557
NameAEROCUBE 12B
Epoch Orbit1916
Epoch Day323.19199081
Epoch Year2018
RAAN350.6722
Inclination51.6438
Eccentricity0.0008967
Argument of Perigee37.2194
Mean Anonmoly322.9406
Mean Motion15.27983066
Decay Rate4.79E-06
L11 43557U 18046D 18323.19199081 .00000479 00000-0 30142-4 0 9992
L22 43557 51.6438 350.6722 0008967 37.2194 322.9406 15.27983066 19164

Live tracking and technical data element details for AEROCUBE 12B (NORAD 43557). AEROCUBE 12B can be tracked NOW for your location showing map with azimuth and elevation plus other details from your city location.

Track the satellite on the map from your city or location and see movement details for azimuth, elevation, latitude, longitude, range, height, and movement on the map or in text.







IsCatalogInMostPopularTable: catalog: 43557, numindb: 42
Update: records affected: 1



GetName: 43557 AEROCUBE 12B

Hit Count: updated at: Tue, 20 Nov 2018 11:22:56 GMT